Location: La Sioule Rivi�re
(46.3664°N, 3.3197°E)
Time: 12:20:38
(UTC+00:00)

SKYMED 2 - Pass Details

Date: 29 October 2020
Orbit: 621 x 623 km, 97.9° (Epoch: 24 November)

Event Time Altitude Azimuth Distance (km) Brightness Sun altitude
Rises 17:49:47 0° 15° (NNE) 2,914 6.8 -13.2°
Reaches altitude 10° 17:52:00 10° 17° (NNE) 2,002 5.9 -13.6°
Maximum altitude 17:56:21 73° 103° (ESE) 656 3.5 -14.4°
Drops below altitude 10° 18:00:40 10° 188° (S) 1,985 6.3 -15.1°
Sets 18:02:51 0° 190° (S) 2,887 7.2 -15.5°
